| time (UTC) | temp C | wind direction | speed KPH | gust KPH | rain 1hr cm | rain 24hr cm | rain mn cm | humidity % | barometer mb |
| 20260509024018 | 16 | 0.0 | 1.6 | 0.03 | 0.03 | 0.03 | 86 | 1030.6 | |
| 20260509023018 | 16 | 0.0 | 1.6 | 0.03 | 0.03 | 0.03 | 85 | 1030.8 | |
| 20260509022018 | 16 | 0.0 | 0.0 | 0.03 | 0.03 | 0.03 | 85 | 1031.1 | |
| 20260509021018 | 16 | 0.0 | 1.6 | 0.00 | 0.00 | 0.00 | 85 | 1031.2 | |
| 20260509020017 | 15 | 0.0 | 0.0 | 0.00 | 0.00 | 0.00 | 86 | 1031.3 | |
| 20260509015019 | 15 | 0.0 | 3.2 | 0.00 | 0.00 | 0.00 | 87 | 1031.5 | |
| 20260509014018 | 15 | 0.0 | 3.2 | 0.00 | 0.00 | 0.00 | 87 | 1031.6 | |
| 20260509013017 | 15 | 0.0 | 4.8 | 0.00 | 0.00 | 0.00 | 88 | 1031.7 | |
| 20260509012020 | 15 | 0.0 | 3.2 | 0.00 | 0.00 | 0.00 | 88 | 1031.6 | |
| 20260509011018 | 15 | 0.0 | 1.6 | 0.00 | 0.00 | 0.00 | 89 | 1031.7 | |
| 20260509010018 | 15 | 0.0 | 1.6 | 0.00 | 0.00 | 0.00 | 89 | 1031.6 | |
| 20260509005017 | 15 | 0.0 | 1.6 | 0.00 | 0.00 | 0.00 | 90 | 1031.6 | |
| 20260509004101 | 14 | 203 | 1.6 | 4.8 | 0.00 | 0.00 | 0.00 | 90 | 1031.7 |
| 20260509003017 | 14 | 0.0 | 1.6 | 0.00 | 0.00 | 0.00 | 90 | 1031.6 | |
| 20260509002018 | 13 | 0 | 1.6 | 4.8 | 0.00 | 0.00 | 0.00 | 91 | 1031.6 |
| 20260509001017 | 13 | 0.0 | 1.6 | 0.00 | 0.00 | 0.00 | 91 | 1031.7 | |
| 20260509000017 | 13 | 0.0 | 1.6 | 0.00 | 0.00 | 0.00 | 91 | 1031.8 | |
| 20260508235017 | 13 | 203 | 1.6 | 3.2 | 0.00 | 0.00 | 0.00 | 91 | 1031.7 |
| 20260508234017 | 13 | 0.0 | 1.6 | 0.00 | 0.00 | 0.00 | 92 | 1031.8 | |
| 20260508233038 | 13 | 0.0 | 0.0 | 0.00 | 0.00 | 0.00 | 91 | 1031.7 | |
| 20260508232019 | 13 | 0.0 | 1.6 | 0.00 | 0.00 | 0.00 | 91 | 1031.7 | |
| 20260508231017 | 12 | 0.0 | 1.6 | 0.00 | 0.00 | 0.00 | 91 | 1031.7 | |
| 20260508225017 | 12 | 0.0 | 0.0 | 0.00 | 0.00 | 0.00 | 91 | 1031.5 | |
| 20260508224017 | 12 | 0.0 | 0.0 | 0.00 | 0.00 | 0.00 | 91 | 1031.4 | |
| 20260508223017 | 12 | 0.0 | 0.0 | 0.00 | 0.00 | 0.00 | 91 | 1031.3 | |
| 20260508222018 | 12 | 0.0 | 0.0 | 0.00 | 0.00 | 0.00 | 91 | 1031.3 | |
| 20260508221017 | 11 | 0.0 | 0.0 | 0.00 | 0.00 | 0.00 | 91 | 1031.3 | |
| 20260508220017 | 11 | 0.0 | 0.0 | 0.00 | 0.00 | 0.00 | 91 | 1031.3 | |
| 20260508215018 | 11 | 0.0 | 0.0 | 0.00 | 0.00 | 0.00 | 91 | 1031.3 | |
| 20260508214017 | 11 | 0.0 | 0.0 | 0.00 | 0.00 | 0.00 | 91 | 1031.1 | |
| 20260508213037 | 11 | 0.0 | 0.0 | 0.00 | 0.00 | 0.00 | 91 | 1030.9 | |
| 20260508212018 | 11 | 0.0 | 0.0 | 0.00 | 0.00 | 0.00 | 91 | 1030.8 | |
| 20260508211037 | 11 | 0.0 | 0.0 | 0.00 | 0.00 | 0.00 | 91 | 1030.7 | |
| 20260508210017 | 11 | 0.0 | 0.0 | 0.00 | 0.00 | 0.00 | 91 | 1030.7 | |
| 20260508205019 | 11 | 0.0 | 0.0 | 0.00 | 0.00 | 0.00 | 91 | 1030.7 | |
| 20260508204017 | 11 | 0.0 | 0.0 | 0.00 | 0.00 | 0.00 | 91 | 1030.6 | |
| 20260508203017 | 11 | 0.0 | 0.0 | 0.00 | 0.00 | 0.00 | 90 | 1030.5 | |
| 20260508202017 | 10 | 0.0 | 0.0 | 0.00 | 0.00 | 0.00 | 90 | 1030.4 | |
| 20260508201017 | 10 | 0.0 | 0.0 | 0.00 | 0.00 | 0.00 | 90 | 1030.3 | |
| 20260508200018 | 10 | 0.0 | 0.0 | 0.00 | 0.00 | 0.00 | 90 | 1030.3 | |
| 20260508195019 | 10 | 0.0 | 0.0 | 0.00 | 0.00 | 0.00 | 90 | 1030.2 | |
| 20260508194017 | 11 | 0.0 | 0.0 | 0.00 | 0.00 | 0.00 | 90 | 1030.2 | |
| 20260508193017 | 11 | 0.0 | 0.0 | 0.00 | 0.00 | 0.00 | 90 | 1030.1 | |
| 20260508192037 | 11 | 0.0 | 0.0 | 0.00 | 0.00 | 0.00 | 90 | 1030.1 | |
| 20260508191017 | 11 | 0.0 | 0.0 | 0.00 | 0.00 | 0.00 | 90 | 1030.1 | |
| 20260508190017 | 11 | 0.0 | 0.0 | 0.00 | 0.00 | 0.00 | 90 | 1030.0 | |
| 20260508185018 | 11 | 0.0 | 0.0 | 0.00 | 0.00 | 0.00 | 90 | 1030.0 | |
| 20260508184038 | 11 | 0.0 | 0.0 | 0.00 | 0.00 | 0.00 | 90 | 1030.0 | |
| 20260508183037 | 11 | 0.0 | 1.6 | 0.00 | 0.00 | 0.00 | 90 | 1030.1 | |
| 20260508182017 | 11 | 0.0 | 0.0 | 0.00 | 0.00 | 0.00 | 90 | 1030.2 | |
| 20260508181017 | 11 | 0.0 | 0.0 | 0.00 | 0.00 | 0.00 | 90 | 1030.4 | |
| 20260508180040 | 11 | 0.0 | 0.0 | 0.00 | 0.00 | 0.00 | 90 | 1030.3 | |
| 20260508175037 | 11 | 0.0 | 0.0 | 0.00 | 0.00 | 0.00 | 90 | 1030.3 | |
| 20260508174018 | 11 | 0.0 | 0.0 | 0.00 | 0.00 | 0.00 | 89 | 1030.3 | |
| 20260508173017 | 11 | 0.0 | 0.0 | 0.00 | 0.00 | 0.00 | 89 | 1030.5 | |
| 20260508172017 | 11 | 0.0 | 1.6 | 0.00 | 0.00 | 0.00 | 89 | 1030.4 | |
| 20260508171017 | 11 | 0.0 | 0.0 | 0.00 | 0.00 | 0.00 | 89 | 1030.4 | |
| 20260508170016 | 11 | 0.0 | 0.0 | 0.00 | 0.00 | 0.00 | 89 | 1030.5 | |
| 20260508165018 | 11 | 0.0 | 0.0 | 0.00 | 0.00 | 0.00 | 89 | 1030.4 | |
| 20260508164017 | 11 | 0.0 | 0.0 | 0.00 | 0.00 | 0.00 | 89 | 1030.3 | |
| 20260508163017 | 11 | 0.0 | 0.0 | 0.00 | 0.00 | 0.00 | 88 | 1030.2 | |
| 20260508162017 | 11 | 0.0 | 0.0 | 0.00 | 0.00 | 0.00 | 88 | 1030.1 | |
| 20260508161037 | 10 | 0.0 | 1.6 | 0.00 | 0.00 | 0.00 | 88 | 1030.4 | |
| 20260508160038 | 10 | 0.0 | 0.0 | 0.00 | 0.00 | 0.00 | 88 | 1030.4 | |
| 20260508155019 | 10 | 0.0 | 0.0 | 0.00 | 0.00 | 0.00 | 88 | 1030.4 | |
| 20260508154037 | 10 | 0.0 | 0.0 | 0.00 | 0.00 | 0.00 | 87 | 1030.4 | |
| 20260508153017 | 10 | 0.0 | 0.0 | 0.00 | 0.00 | 0.00 | 87 | 1030.3 | |
| 20260508152017 | 11 | 0.0 | 0.0 | 0.00 | 0.00 | 0.00 | 87 | 1030.4 | |
| 20260508151018 | 11 | 0.0 | 0.0 | 0.00 | 0.00 | 0.00 | 87 | 1030.4 | |
| 20260508150016 | 11 | 0.0 | 0.0 | 0.00 | 0.00 | 0.00 | 87 | 1030.5 | |
| 20260508145017 | 11 | 0.0 | 0.0 | 0.00 | 0.00 | 0.00 | 87 | 1030.6 | |
| 20260508144018 | 11 | 0.0 | 0.0 | 0.00 | 0.00 | 0.00 | 86 | 1030.6 | |
| 20260508143019 | 11 | 0.0 | 0.0 | 0.00 | 0.00 | 0.00 | 86 | 1030.6 | |
| 20260508142018 | 11 | 0.0 | 0.0 | 0.00 | 0.00 | 0.00 | 86 | 1030.6 | |
| 20260508141017 | 12 | 0.0 | 0.0 | 0.00 | 0.00 | 0.00 | 86 | 1030.7 | |
| 20260508140018 | 12 | 0.0 | 0.0 | 0.00 | 0.00 | 0.00 | 86 | 1030.6 | |
| 20260508135016 | 12 | 0.0 | 0.0 | 0.00 | 0.00 | 0.00 | 86 | 1030.8 | |
| 20260508134118 | 12 | 0.0 | 0.0 | 0.00 | 0.00 | 0.00 | 85 | 1030.8 | |
| 20260508133018 | 12 | 0.0 | 0.0 | 0.00 | 0.00 | 0.00 | 85 | 1030.9 | |
| 20260508132038 | 12 | 0.0 | 0.0 | 0.00 | 0.00 | 0.00 | 85 | 1031.0 | |
| 20260508131016 | 12 | 0.0 | 0.0 | 0.00 | 0.00 | 0.00 | 85 | 1031.0 | |
| 20260508130038 | 12 | 0.0 | 0.0 | 0.00 | 0.00 | 0.00 | 85 | 1031.1 | |
| 20260508125016 | 12 | 0.0 | 0.0 | 0.00 | 0.00 | 0.00 | 85 | 1031.0 | |
| 20260508124016 | 12 | 0.0 | 0.0 | 0.00 | 0.00 | 0.00 | 85 | 1031.2 | |
| 20260508123037 | 12 | 0.0 | 0.0 | 0.00 | 0.00 | 0.00 | 84 | 1031.2 | |
| 20260508122017 | 12 | 0.0 | 0.0 | 0.00 | 0.00 | 0.00 | 84 | 1031.1 | |
| 20260508121016 | 12 | 0.0 | 0.0 | 0.00 | 0.00 | 0.00 | 84 | 1031.1 | |
| 20260508120018 | 12 | 0.0 | 0.0 | 0.00 | 0.00 | 0.00 | 83 | 1031.2 | |
| 20260508115037 | 12 | 0.0 | 0.0 | 0.00 | 0.00 | 0.00 | 83 | 1031.1 | |
| 20260508114016 | 12 | 0.0 | 0.0 | 0.00 | 0.00 | 0.00 | 83 | 1031.1 | |
| 20260508113016 | 13 | 0.0 | 0.0 | 0.00 | 0.00 | 0.00 | 82 | 1031.1 | |
| 20260508112059 | 13 | 0.0 | 1.6 | 0.00 | 0.00 | 0.00 | 82 | 1031.1 | |
| 20260508111016 | 13 | 0.0 | 0.0 | 0.00 | 0.00 | 0.00 | 81 | 1030.9 | |
| 20260508110037 | 13 | 0.0 | 0.0 | 0.00 | 0.00 | 0.00 | 81 | 1031.0 | |
| 20260508105016 | 13 | 0.0 | 1.6 | 0.00 | 0.00 | 0.00 | 81 | 1031.1 | |
| 20260508104017 | 13 | 0.0 | 3.2 | 0.00 | 0.00 | 0.00 | 81 | 1031.0 | |
| 20260508103016 | 13 | 0.0 | 1.6 | 0.00 | 0.00 | 0.00 | 81 | 1031.0 | |
| 20260508102016 | 13 | 0.0 | 1.6 | 0.00 | 0.00 | 0.00 | 81 | 1031.0 | |
| 20260508101019 | 13 | 0.0 | 3.2 | 0.00 | 0.00 | 0.00 | 81 | 1031.0 | |
| 20260508100018 | 13 | 225 | 1.6 | 8.0 | 0.00 | 0.00 | 0.00 | 81 | 1030.9 |
| 20260508095016 | 13 | 0.0 | 4.8 | 0.00 | 0.00 | 0.00 | 80 | 1030.8 | |
| 20260508094016 | 14 | 0.0 | 0.0 | 0.00 | 0.00 | 0.00 | 81 | 1030.8 | |
| 20260508093016 | 14 | 0.0 | 1.6 | 0.00 | 0.00 | 0.00 | 81 | 1030.8 | |
| 20260508092017 | 14 | 0.0 | 0.0 | 0.00 | 0.00 | 0.00 | 81 | 1030.6 | |
| 20260508091016 | 14 | 0.0 | 0.0 | 0.00 | 0.00 | 0.00 | 81 | 1030.6 | |
| 20260508090017 | 15 | 0.0 | 3.2 | 0.00 | 0.00 | 0.00 | 81 | 1030.5 | |
| 20260508085017 | 15 | 0.0 | 4.8 | 0.00 | 0.00 | 0.00 | 81 | 1030.4 | |
| 20260508084016 | 15 | 0.0 | 3.2 | 0.00 | 0.00 | 0.00 | 81 | 1030.4 | |
| 20260508083018 | 15 | 0.0 | 6.4 | 0.00 | 0.00 | 0.00 | 80 | 1030.3 | |
| 20260508082016 | 15 | 270 | 1.6 | 9.7 | 0.00 | 0.00 | 0.00 | 80 | 1030.3 |
| 20260508081016 | 15 | 270 | 1.6 | 6.4 | 0.00 | 0.00 | 0.00 | 80 | 1030.2 |
| 20260508080016 | 15 | 270 | 1.6 | 11.3 | 0.00 | 0.00 | 0.00 | 80 | 1030.1 |
| 20260508075016 | 16 | 270 | 1.6 | 9.7 | 0.00 | 0.00 | 0.00 | 79 | 1029.9 |
| 20260508074017 | 16 | 270 | 1.6 | 11.3 | 0.00 | 0.00 | 0.00 | 78 | 1030.0 |
| 20260508073016 | 16 | 248 | 3.2 | 8.0 | 0.00 | 0.00 | 0.00 | 77 | 1030.0 |
| 20260508072037 | 16 | 248 | 3.2 | 11.3 | 0.00 | 0.00 | 0.00 | 77 | 1030.0 |
| 20260508071018 | 16 | 158 | 1.6 | 6.4 | 0.00 | 0.00 | 0.00 | 77 | 1029.9 |
| 20260508070041 | 16 | 225 | 1.6 | 8.0 | 0.00 | 0.00 | 0.00 | 77 | 1029.9 |
| 20260508065058 | 16 | 180 | 1.6 | 6.4 | 0.00 | 0.00 | 0.00 | 78 | 1029.9 |
| 20260508064018 | 16 | 180 | 1.6 | 8.0 | 0.00 | 0.00 | 0.00 | 77 | 1030.0 |
| 20260508063019 | 16 | 203 | 3.2 | 9.7 | 0.00 | 0.00 | 0.00 | 77 | 1029.9 |
| 20260508062018 | 17 | 270 | 3.2 | 11.3 | 0.00 | 0.00 | 0.00 | 76 | 1029.9 |
| 20260508061018 | 17 | 270 | 4.8 | 14.5 | 0.00 | 0.00 | 0.00 | 76 | 1029.9 |
| 20260508060018 | 17 | 248 | 3.2 | 11.3 | 0.00 | 0.00 | 0.00 | 75 | 1030.1 |
| 20260508055038 | 17 | 180 | 4.8 | 9.7 | 0.00 | 0.00 | 0.00 | 74 | 1030.0 |
| 20260508054018 | 18 | 270 | 4.8 | 16.1 | 0.00 | 0.00 | 0.00 | 73 | 1029.9 |
| 20260508053018 | 18 | 270 | 4.8 | 20.9 | 0.00 | 0.00 | 0.00 | 74 | 1029.9 |
| 20260508052018 | 17 | 248 | 3.2 | 12.9 | 0.00 | 0.00 | 0.00 | 74 | 1029.8 |
| 20260508051018 | 17 | 180 | 3.2 | 8.0 | 0.00 | 0.00 | 0.00 | 74 | 1029.9 |
| 20260508050019 | 17 | 248 | 3.2 | 8.0 | 0.00 | 0.00 | 0.00 | 74 | 1030.0 |
| 20260508045018 | 17 | 203 | 3.2 | 6.4 | 0.00 | 0.00 | 0.00 | 75 | 1029.9 |
| 20260508044020 | 17 | 203 | 3.2 | 4.8 | 0.00 | 0.00 | 0.00 | 76 | 1030.1 |
| 20260508043018 | 17 | 180 | 3.2 | 11.3 | 0.00 | 0.00 | 0.00 | 77 | 1030.2 |
| 20260508042018 | 17 | 203 | 1.6 | 9.7 | 0.00 | 0.00 | 0.00 | 82 | 1030.3 |
| 20260508041018 | 16 | 225 | 3.2 | 9.7 | 0.00 | 0.00 | 0.00 | 83 | 1030.3 |
| 20260508040038 | 16 | 248 | 3.2 | 11.3 | 0.00 | 0.00 | 0.00 | 84 | 1030.5 |
| 20260508035017 | 16 | 225 | 3.2 | 14.5 | 0.00 | 0.00 | 0.00 | 85 | 1030.6 |
| 20260508034018 | 16 | 248 | 1.6 | 6.4 | 0.00 | 0.00 | 0.00 | 86 | 1030.7 |
| 20260508033018 | 16 | 248 | 3.2 | 11.3 | 0.00 | 0.00 | 0.00 | 86 | 1031.0 |
| 20260508032019 | 16 | 180 | 3.2 | 11.3 | 0.00 | 0.00 | 0.00 | 86 | 1031.0 |
| 20260508031018 | 16 | 158 | 3.2 | 9.7 | 0.00 | 0.00 | 0.00 | 85 | 1031.1 |
| 20260508030019 | 16 | 203 | 3.2 | 8.0 | 0.00 | 0.00 | 0.00 | 86 | 1031.2 |
| 20260508025018 | 16 | 248 | 3.2 | 9.7 | 0.00 | 0.00 | 0.00 | 86 | 1031.3 |